Regional Weather Roundup
Issued by NWS Green Bay, WI

Home | Current Version | Previous Version | Text Only | Print | Product List | Glossary On
Versions: 1 2 3 4 5 6 7 8 9 10 11 12 13 14 15 16 17 18 19 20 21 22 23 24 25 26 27 28 29 30 31 32 33 34 35 36 37 38 39 40 41 42 43 44 45 46 47 48 49 50
000
ASUS43 KGRB 010011
RWRGRB

NORTH-CENTRAL AND NORTHEAST WISCONSIN REGIONAL WEATHER ROUNDUP
NATIONAL WEATHER SERVICE GREEN BAY WI
700 PM CDT SUN APR 30 2017

WIZ005-009-010>012-018-019-010100-
NORTH CENTRAL WISCONSIN

CITY           SKY/WX    TMP DP  RH WIND       PRES   REMARKS
IRONWOOD       CLOUDY    42  22  44 E12       29.93F
MANITOWISH WTR CLOUDY    40  18  41 NE10G18   29.89F
ARBOR VITAE    CLOUDY    44  23  44 NE10      29.87F
EAGLE RIVER    CLOUDY    45  27  48 E15G21    29.88S
LAND O LAKES   CLOUDY    43  23  44 NE9G17    29.91F
RHINELANDER    CLOUDY    45  35  68 E13G23    29.87F
PHILLIPS       CLOUDY    46  24  42 NE18G26   29.83F
ANTIGO         CLOUDY    38  34  85 E18G28    29.86F
TOMAHAWK       CLOUDY    43  34  69 E13G21    29.86F
MERRILL        CLOUDY    43  34  71 E13G18    29.86F
$$

WIZ013-073-010100-
NORTHEAST WISCONSIN

CITY           SKY/WX    TMP DP  RH WIND       PRES   REMARKS
IRON MOUNTAIN  CLOUDY    41  35  79 E10G20    29.93F
MARINETTE      LGT RAIN  38  36  92 E14G23    29.94F FOG
OCONTO         CLOUDY    37  35  90 NE16G24   29.90F
$$

WIZ017-030-035>037-045-010100-
CENTRAL WISCONSIN

CITY           SKY/WX    TMP DP  RH WIND       PRES   REMARKS
MEDFORD        CLOUDY    43  34  69 E16       29.81F
WAUSAU         CLOUDY    40  35  83 E16G24    29.84F
MOSINEE        NOT AVBL
MARSHFIELD     LGT RAIN  40  35  83 E16       29.82F
WISC RAPIDS    CLOUDY    40  36  86 E17G26    29.83F
STEVENS POINT  CLOUDY    37  35  94 E15G28    29.85F
WAUPACA        CLOUDY    40  37  87 NE10G18   29.86F FOG
SHAWANO        CLOUDY    40  37  89 NE18G28   29.89F
CLINTONVILLE   CLOUDY    37  34  87 NE18G25   29.88F
WAUTOMA        LGT RAIN  38  36  92 NE18G26   29.82F FOG
$$

WIZ038-039-048-051-010100-
FOX VALLEY

CITY           SKY/WX    TMP DP  RH WIND       PRES   REMARKS
NWS GREEN BAY  CLOUDY    40  38  93 NE21G26   29.89F
APPLETON       CLOUDY    37  37 100 NE15G21   29.85S
OSHKOSH        CLOUDY    39  36  89 NE18G25   29.82F
FOND DU LAC    CLOUDY    40  36  86 NE23      29.80F
$$

WIZ022-050-052-010100-
EAST CENTRAL WISCONSIN

CITY           SKY/WX    TMP DP  RH WIND       PRES   REMARKS
EPHRAIM        CLOUDY    36  36 100 E14G22    29.92F
WASHINGTON ISL CLOUDY    37  35  93 E14G23    29.94F
STURGEON BAY   CLOUDY    37  35  92 NE14      29.92F
MANITOWOC      CLOUDY    38  36  92 NE12G22   29.86F
SHEBOYGAN      CLOUDY    39  37  92 NE23G30   29.81F
$$

LMZ563-521-522-541>543-010100-
LAKESHORE

STATION/POSITION TIME  TEMP    WIND        PRES    VSBY  WAVE
                       AIR SEA DIR/SP/G                  HT/PER
                 (UTC) (F)     (DEG/KT/KT) (MB)    (MI)  (FT/S)
SHEBOYGAN LKSHOR 0000   39      20/ 26/ 29 1009.6F
KEWAUNEE LKSHORE 2348   38      40/ 18/ 25 1011.9F
NORTHPORT PIER   2340   38      60/ 23/ 27 1013.9F
N MID LAKE BUOY  2350   37 37   70/ 19/ 23 1014.6F         5/ 5
CHAMBERS ISLAND  2340   38      50/ 15/ 21 1013.5F
MENOMINEE LKSHOR 2348   39      50/ 20/ 25 1012.8F
$$




USA.gov is the U.S. government's official web portal to all federal, state and local government web resources and services.